Dewpoint
65 62 66 66 69 67 69 68 69 62 64 64 63 60 59 59 60 60 61 60 58 59 58 58 60 60 57 55 56 57 59 60 60 59 60 60 63 65 68 68 68 68 67 65 64 64 63 62 62 62 62 61 60 60 59 59 60 59 60 60 64 65 64 63 63 63 61 61 60 60 59 59 58 58 58 58 57 57 57 57 57 56 56 56 56
66 66 66 67 67 68 68 67 68 68 64 64 63 60 59 58 59 59 58 60 58 58 58 58 57 59 58 57 56 56 60 59 60 59 59 61 61 65 68 67 67 68 68 68 67 64 64 63 63 63 62 61 61 59 60 59 60 60 59 60 65 65 64 64 64 63 62 62 61 60 59 59 59 58 58 58 58 57 57 56 56 56 56 56 55
67 67 67 67 67 68 68 69 68 67 65 64 64 62 60 60 59 59 59 59 58 57 57 58 58 57 59 56 55 57 57 60 58 58 58 60 60 65 66 68 68 68 68 68 68 66 65 64 63 63 63 61 61 61 59 60 60 60 59 60 65 65 65 64 63 63 62 61 61 60 59 59 59 58 58 57 57 57 57 56 56 56 55 55 55
68 68 65 66 66 66 68 68 67 69 67 63 64 63 61 58 57 59 61 60 59 59 59 58 58 56 56 57 57 57 56 57 58 57 57 59 59 61 65 66 68 68 68 68 68 68 67 65 64 63 63 62 61 61 61 59 60 59 59 61 65 64 65 65 64 63 63 62 61 60 60 60 59 59 59 58 57 57 57 56 56 55 55 55 55
68 67 65 65 67 67 66 67 67 67 67 65 64 65 61 59 58 58 59 60 61 61 59 59 58 58 59 57 58 56 56 55 59 59 58 57 57 58 62 63 64 68 67 68 68 68 68 67 65 64 63 63 62 61 62 60 60 60 60 60 63 63 63 65 64 64 63 63 62 61 60 60 59 59 59 58 57 57 57 56 56 56 55 54 55
66 67 67 66 66 66 66 66 67 68 68 67 68 65 63 60 58 57 58 59 62 61 59 58 56 55 59 59 59 60 58 55 57 58 59 58 57 58 57 59 62 64 64 69 68 67 67 68 67 65 64 64 63 63 62 61 61 61 60 60 61 64 63 63 64 64 63 63 62 61 60 60 60 60 59 58 58 57 57 56 56 56 55 55 54
65 67 66 65 65 67 65 63 67 68 67 67 67 65 63 62 63 58 58 59 58 60 59 65 63 61 62 61 57 56 59 58 57 57 57 59 59 58 59 59 58 60 61 62 67 67 67 67 68 68 66 64 64 64 63 63 63 62 61 60 61 62 63 63 63 65 64 63 63 62 61 61 60 60 59 59 58 57 57 56 56 56 55 54 54
64 65 66 65 65 63 67 67 65 67 66 66 64 63 65 66 65 65 60 59 60 61 62 62 64 63 63 63 62 61 59 59 58 56 57 58 57 58 58 58 59 59 60 62 63 65 67 67 67 68 68 67 65 64 64 63 62 63 62 61 61 61 62 62 62 65 65 64 63 62 61 61 61 60 60 59 59 58 57 57 56 56 55 55 54
64 63 66 65 63 64 65 66 67 66 66 66 65 64 64 64 65 65 64 63 61 60 64 64 63 64 65 64 62 63 62 61 58 57 55 56 57 55 55 57 58 59 61 59 61 64 66 66 67 66 67 67 67 65 64 64 63 64 63 62 62 61 61 61 62 62 65 64 63 62 62 61 61 60 60 60 59 58 58 57 57 56 56 55 55
64 64 66 65 63 64 64 66 66 66 66 66 65 65 66 65 64 64 64 63 61 59 61 63 62 63 65 66 65 65 64 62 62 60 56 55 55 55 54 55 56 56 58 59 58 60 65 66 67 66 66 66 66 67 65 65 64 64 64 63 63 63 63 62 62 61 64 64 64 63 62 62 61 61 60 60 60 59 58 58 57 56 56 56 55
62 62 64 64 65 66 65 66 65 65 66 66 66 63 65 64 64 63 65 62 61 61 62 61 60 61 61 64 67 66 65 65 62 61 59 56 54 54 51 54 56 56 58 58 58 58 63 64 65 65 65 65 66 67 67 67 66 65 64 64 62 63 64 63 62 61 62 63 64 64 63 63 62 61 61 60 60 59 59 58 57 57 56 56 55
61 61 63 64 64 66 64 66 66 65 65 64 66 66 64 64 62 61 62 63 62 62 63 62 62 61 62 63 63 64 65 66 64 61 60 59 58 56 54 54 56 57 56 57 57 56 58 61 64 62 62 64 65 66 67 66 66 67 65 64 63 63 64 64 64 63 62 62 64 64 64 63 62 62 61 61 60 60 60 59 58 58 57 56 55
57 57 59 59 59 65 64 64 64 64 65 64 64 64 64 65 65 65 64 63 62 63 64 64 63 62 65 63 64 61 64 63 64 61 59 60 60 58 59 60 58 58 57 57 55 56 56 58 58 59 60 60 65 65 65 65 66 67 67 66 64 63 63 64 65 65 64 62 62 64 65 64 63 62 62 61 61 60 60 59 58 58 57 57 56
57 57 58 57 58 59 63 64 64 64 64 64 64 64 63 64 63 63 63 62 61 62 63 63 60 59 59 60 64 65 64 60 58 61 61 61 61 60 63 60 58 59 61 58 57 56 55 56 58 57 56 57 61 63 65 65 66 66 67 68 67 65 64 64 65 65 65 64 62 63 65 65 63 62 62 62 61 61 60 60 59 58 58 57 57
54 54 57 55 56 57 59 61 62 63 63 63 62 62 63 63 63 62 61 61 61 62 64 62 60 61 61 58 58 58 62 63 60 60 62 63 63 61 58 55 55 54 57 59 58 58 54 54 55 57 58 58 57 59 62 63 63 65 66 67 67 67 66 65 64 65 66 65 65 64 65 65 64 63 62 62 62 61 60 60 59 59 58 57 57
53 52 54 55 56 56 57 57 59 60 60 62 59 59 63 62 63 63 62 59 58 58 64 64 63 61 56 57 59 58 56 58 60 63 61 58 55 53 52 52 55 59 60 60 57 58 58 56 54 57 61 61 59 58 56 63 62 64 64 65 65 67 67 66 65 65 65 66 66 65 65 65 65 64 63 62 62 62 61 60 60 59 58 58 57
53 53 50 53 54 56 55 56 55 57 57 55 55 56 57 59 60 61 61 60 58 60 62 63 62 65 61 58 57 56 56 59 60 61 63 58 54 52 56 56 55 58 58 59 61 60 59 59 60 60 61 61 61 60 59 58 61 64 65 64 65 66 66 67 67 66 65 65 66 66 66 66 65 64 63 63 62 62 62 61 60 59 59 59 57
53 53 51 51 55 54 55 53 55 56 55 54 53 51 53 53 58 61 61 61 60 58 59 64 64 64 63 64 59 59 59 59 58 55 63 64 60 57 57 58 61 60 59 57 59 62 65 62 62 63 63 62 60 60 60 59 60 61 63 65 63 64 65 65 67 68 67 66 65 65 65 67 66 65 64 63 63 62 62 61 61 60 60 59 58
54 53 53 52 54 54 55 53 52 52 53 54 53 54 51 51 53 55 57 58 59 59 58 59 62 62 62 63 62 62 62 59 55 57 56 60 63 63 60 57 59 59 58 57 61 62 62 64 64 65 66 64 65 63 63 59 58 59 60 60 62 61 61 61 64 67 68 67 66 65 65 65 67 65 64 64 63 62 62 61 61 61 60 60 59
54 53 54 53 53 52 51 51 48 48 48 50 52 52 55 54 56 55 54 55 56 58 57 59 58 59 61 60 61 61 60 59 57 56 56 55 58 63 64 63 60 60 59 60 63 64 65 66 64 64 65 62 63 63 64 60 60 60 59 58 60 60 59 59 59 60 65 68 68 67 66 65 66 65 65 64 63 63 62 62 61 61 61 61 60
53 51 48 47 48 48 48 47 46 44 41 44 49 52 55 56 55 55 56 56 55 56 54 53 54 55 55 58 60 57 58 59 58 58 55 54 55 56 58 63 63 61 59 60 61 61 64 65 64 61 64 66 63 63 64 66 64 62 61 59 59 59 59 58 56 56 56 63 67 68 67 66 66 66 65 65 64 63 63 62 62 61 61 61 60
51 48 48 46 47 47 46 46 46 43 42 43 46 50 52 53 55 56 56 56 56 56 55 54 53 54 52 52 52 52 56 56 55 52 53 56 52 50 53 54 58 63 61 57 56 54 52 54 59 56 54 57 61 63 62 62 62 62 62 60 59 58 58 57 54 55 56 57 63 66 68 68 66 66 67 66 66 64 63 63 62 62 61 61 61
50 51 50 49 49 48 48 47 48 48 44 44 46 44 48 49 51 52 52 53 52 52 52 52 51 50 49 47 47 49 49 48 51 49 49 48 48 48 49 46 45 47 58 60 57 53 52 54 51 49 49 52 54 57 61 59 59 60 60 59 59 57 57 56 54 53 55 59 60 64 66 67 67 66 66 67 67 66 65 64 64 63 62 62 61
51 49 51 50 50 49 50 50 49 49 47 47 46 45 47 48 48 49 50 50 50 49 49 49 49 48 48 46 46 47 48 48 48 48 48 47 47 44 40 39 39 40 41 53 47 47 48 48 47 48 48 49 53 54 57 59 60 60 61 59 58 57 56 55 53 53 52 55 58 61 64 66 67 66 66 67 67 66 66 65 65 64 63 62 62
49 49 51 52 50 51 50 48 48 49 48 45 47 47 47 47 48 48 48 47 47 49 48 49 48 45 44 45 43 44 46 47 48 47 48 48 46 43 42 42 43 42 39 39 42 41 41 43 44 47 48 50 53 55 54 56 58 62 58 60 57 57 56 55 54 52 52 51 53 57 61 64 66 66 66 66 66 67 66 65 62 59 60 60 61
51 51 50 51 51 51 51 49 48 49 49 50 50 48 48 43 47 48 48 49 49 49 48 49 49 47 45 44 42 43 44 46 46 47 47 46 44 45 45 44 43 40 39 36 35 35 37 39 41 43 47 48 52 56 57 56 60 58 58 59 58 56 56 56 55 52 51 50 51 54 56 58 62 65 66 66 65 63 62 60 58 58 57 56 56
49 52 50 52 53 52 51 50 49 50 49 49 48 48 48 45 46 48 48 48 48 47 46 48 47 45 47 43 44 43 41 41 42 45 43 44 45 46 44 42 41 42 41 38 37 35 36 41 42 41 44 54 54 54 53 55 55 59 57 62 59 55 55 55 55 54 51 50 49 50 51 53 54 56 58 59 59 58 58 59 58 56 56 55 55
52 53 51 52 53 52 51 51 49 49 49 49 48 46 48 46 45 48 47 46 49 50 49 49 48 49 46 45 45 42 44 42 41 42 42 46 44 44 45 45 42 40 40 39 40 39 38 39 41 43 41 47 50 53 52 53 58 56 56 60 57 56 55 54 54 54 53 51 50 49 49 50 50 51 52 54 56 57 57 59 58 56 55 55 55
52 54 52 52 53 53 52 51 51 50 49 48 47 47 48 46 47 48 48 48 47 45 48 47 48 47 45 47 42 43 42 43 45 46 45 46 46 45 44 43 44 41 40 39 40 41 41 39 38 39 38 41 52 54 53 51 56 59 55 55 57 59 56 54 53 53 53 52 50 49 49 49 49 50 52 53 55 56 56 55 56 56 55 55 55
51 54 52 53 53 53 53 52 52 51 50 48 46 46 47 45 46 46 45 48 48 48 47 45 45 44 43 44 41 42 43 45 44 47 46 46 44 45 44 44 44 43 43 41 42 42 40 44 42 39 43 45 48 52 51 49 56 55 49 50 54 57 54 54 53 52 52 51 50 50 49 49 49 50 52 52 53 54 53 53 53 54 54 54 54
50 54 52 52 53 53 54 52 52 50 49 49 48 48 47 46 47 45 47 48 46 45 46 46 45 45 44 45 42 41 43 43 45 46 47 46 44 41 41 44 45 46 44 44 42 43 44 45 45 44 43 43 42 46 47 48 48 49 49 51 46 53 54 56 53 53 52 52 52 51 49 49 48 49 50 52 53 53 53 54 54 54 54 55 54
50 52 51 52 52 52 52 52 52 51 49 48 48 48 48 48 46 46 46 46 44 44 44 45 41 44 44 45 42 40 41 37 41 44 42 43 46 42 41 41 41 44 44 44 43 42 44 43 43 43 42 46 44 44 45 41 40 49 46 48 50 51 56 52 50 52 52 51 51 50 50 49 48 48 48 49 50 51 51 52 53 53 54 54 54
50 51 50 51 50 51 51 51 50 50 50 50 49 49 48 48 47 46 44 43 42 43 43 43 42 43 39 38 40 43 43 41 41 40 39 40 41 43 44 43 42 43 42 43 42 42 43 45 44 43 43 45 42 42 41 44 46 47 49 50 52 54 53 53 52 49 50 51 50 50 50 49 49 48 48 48 48 49 50 51 52 53 52 52 52
50 49 49 50 50 50 50 49 50 48 49 48 48 49 47 47 47 46 45 43 42 42 43 42 43 43 43 42 37 40 39 36 41 34 33 35 34 31 33 39 38 40 42 40 39 39 40 41 40 40 41 42 39 40 44 47 47 46 43 43 42 42 43 46 47 49 49 50 50 49 49 49 49 48 48 47 47 48 49 49 49 49 51 51 51
51 49 48 50 50 50 49 50 49 49 48 47 48 47 47 47 45 46 46 43 43 44 43 42 39 41 43 43 41 42 42 42 43 42 41 38 37 35 37 37 39 40 40 40 41 40 40 40 42 39 40 41 43 40 40 42 42 41 40 41 39 39 39 42 41 41 47 49 49 49 50 49 49 48 47 47 47 47 47 48 48 48 48 49 50
52 50 47 47 49 50 50 49 49 49 48 48 48 46 46 46 45 44 44 44 44 44 43 41 37 40 41 41 41 41 40 40 41 40 38 39 40 37 38 37 37 36 41 44 45 44 43 42 43 39 39 40 40 39 37 37 37 38 38 38 39 40 40 39 40 40 44 50 49 50 50 50 49 48 47 47 47 47 46 46 47 47 47 48 49
55 58 53 47 49 48 51 50 49 49 49 47 47 46 47 47 46 46 45 43 45 44 43 42 44 41 40 40 39 38 40 39 41 40 39 42 37 38 37 36 34 35 37 38 40 41 40 39 39 40 40 38 37 39 38 37 36 35 36 37 36 37 40 41 42 40 51 48 49 50 49 49 48 48 48 48 47 47 46 46 46 47 47 48 48
54 54 54 51 48 47 48 49 49 49 49 48 47 46 46 47 47 47 46 45 45 43 43 42 41 40 41 39 39 38 37 40 39 40 40 40 39 40 38 37 35 37 39 38 38 38 36 36 38 38 39 37 37 38 37 39 39 38 37 38 38 38 38 41 40 40 45 54 58 57 52 49 48 48 48 48 48 47 46 46 46 47 47 47 48
53 53 52 52 55 51 47 49 49 50 49 48 48 48 46 46 47 46 47 46 45 44 43 41 39 39 39 37 38 38 37 37 38 39 40 41 41 40 40 40 38 40 40 39 37 37 37 36 36 37 36 37 39 37 35 35 36 36 39 39 39 37 41 43 45 44 46 49 49 51 53 52 51 51 49 47 47 48 47 46 47 47 47 46 46
57 53 51 51 56 56 53 49 50 50 50 48 48 47 47 47 47 47 46 47 45 44 44 40 38 37 37 36 36 35 36 36 39 39 39 37 36 36 35 35 35 35 36 36 37 36 37 37 36 35 36 36 36 37 35 35 36 36 37 42 43 43 44 46 45 42 44 47 49 47 49 51 48 50 48 47 48 47 47 47 47 47 47 46 46
58 56 57 53 54 56 52 51 50 51 50 50 48 48 48 46 47 47 47 45 44 43 40 37 37 35 35 35 34 34 41 41 36 38 39 39 31 27 30 32 34 35 36 35 35 34 35 36 36 36 34 34 35 36 36 37 38 37 40 41 41 42 41 41 41 40 36 38 40 41 44 52 53 55 55 55 55 50 49 48 51 47 47 46 45
56 56 55 56 55 54 53 52 51 53 51 50 49 45 45 46 47 46 47 45 41 40 39 37 37 35 34 35 36 43 38 34 32 34 35 37 40 37 30 32 32 33 33 34 33 33 34 33 33 34 34 34 33 37 37 37 38 39 39 40 39 40 42 43 44 44 43 43 42 42 41 43 47 47 47 49 55 56 56 54 57 53 48 45 45
55 54 55 54 55 55 53 53 56 52 52 50 42 41 41 43 46 46 44 42 40 38 37 36 36 35 34 31 34 41 39 40 35 35 35 35 35 37 37 37 37 34 31 29 30 32 31 32 32 32 32 34 35 35 36 34 37 38 38 39 39 39 38 37 37 42 43 42 42 45 46 49 48 45 44 46 52 58 57 55 45 46 46 45 45
54 55 55 54 54 55 54 53 52 53 52 41 37 36 36 36 39 44 41 40 39 37 36 34 33 34 34 35 35 37 36 36 35 36 35 35 36 36 35 36 36 36 37 36 32 31 32 31 31 32 33 34 35 37 36 37 37 38 39 40 40 40 41 41 41 42 44 45 43 43 45 48 47 47 47 47 47 52 53 47 43 43 44 44 44
53 52 52 54 53 54 53 53 52 51 43 36 34 35 35 35 35 39 37 38 37 47 35 34 32 31 32 33 34 35 34 43 35 31 32 36 37 35 36 36 36 35 34 34 34 37 34 33 32 32 32 33 33 35 38 38 39 39 39 38 39 39 38 37 36 37 42 46 44 43 43 45 46 45 45 48 49 54 52 44 43 43 43 43 43
51 51 52 54 53 53 53 52 53 44 42 36 35 35 35 35 34 36 42 38 38 34 34 33 34 34 33 33 32 34 35 35 35 34 34 35 35 37 38 37 35 38 36 34 34 35 36 36 35 34 35 36 34 35 37 39 38 38 38 38 40 38 38 38 40 41 43 44 43 43 42 43 44 45 45 46 47 50 55 45 42 42 42 42 42
50 51 51 52 53 53 53 52 47 43 40 35 35 35 34 34 33 32 37 38 36 35 35 34 34 35 34 35 35 34 34 34 36 35 35 33 33 33 32 32 32 32 34 36 38 37 37 38 36 37 38 38 38 38 38 38 40 39 40 40 40 40 40 40 38 39 39 40 42 42 40 42 44 42 43 43 45 45 53 43 42 42 42 42 41
48 49 50 51 52 53 52 49 45 40 37 34 34 33 32 32 31 34 38 38 40 34 34 34 34 34 34 35 35 35 36 35 35 32 33 33 32 31 31 31 32 33 35 36 36 37 37 37 37 37 37 39 37 39 38 36 35 37 36 36 37 38 37 36 35 36 36 38 39 37 39 39 41 41 41 42 43 44 50 48 41 42 42 41 41
48 48 47 48 50 51 50 48 43 40 35 33 32 32 31 32 29 30 35 35 34 35 36 35 34 34 35 34 34 34 35 35 35 32 33 33 33 31 31 32 34 34 34 35 35 35 35 35 34 34 34 34 34 34 34 35 36 36 34 33 33 35 34 34 34 35 35 37 37 38 38 36 39 39 40 41 42 42 42 49 47 41 41 41 41
47 48 47 48 50 51 49 47 43 38 34 34 33 32 32 32 30 33 33 34 33 34 34 35 35 34 34 42 38 32 33 33 33 33 34 35 33 32 32 33 34 34 34 34 35 36 35 36 35 34 34 34 34 34 34 34 34 35 34 32 34 34 34 34 32 33 34 34 34 38 38 37 38 39 39 40 41 42 43 46 48 45 40 40 40
46 46 46 48 49 49 48 48 43 38 35 34 34 33 33 33 33 33 37 34 31 31 32 31 34 34 33 40 39 35 35 34 33 33 33 33 33 33 33 33 33 32 31 33 33 34 34 35 35 39 38 37 38 37 36 35 35 36 36 35 35 33 32 33 33 33 33 33 35 38 34 35 37 37 38 38 38 39 42 45 46 47 47 46 43